Flag for Malaysia Weather past 2 weeks in Kota Kinabalu, Malaysia

Now
77 °F

Passing clouds.


Feels Like: 78 °F
Forecast: 78 / 89 °F
Wind: 6 mph from Southeast

Location: Kota Kinabalu Airport

Current Time: Sep 5, 2015 at 1:05:24 AM

Latest Report: Sep 5, 2015 at 12:30 AM


Visibility: N/A

Pressure: 29.89 "Hg

Humidity: 94%

Dew point: 75 °F

Location of Kota KinabaluLocation

Historic Weather in Kota Kinabalu — Graph

°F

Kota Kinabalu temperature yesterday

Maximum temperature yesterday: 91 °F (at 11:00 AM)
Minimum temperature yesterday: 79 °F (at 6:30 AM)
Average temperature yesterday: 83 °F

Past Weeks' High & Low Weather Summary

 TemperatureHumidityPressure
High95 °F (Aug 24, 12:30 PM)100% (Aug 27, 2:30 AM)29.95 "Hg (Aug 27, 2:30 AM)
Low73 °F (Aug 30, 10:30 PM)59% (Aug 21, 10:00 AM)29.74 "Hg (Aug 22, 2:00 PM)
Average83 °F82%29.83 "Hg
* Reported Aug 20 11:00 PM — Sep 4 11:30 PM, Kota Kinabalu, Weather by CustomWeather, © 2015

Note: Actual official high and low records may vary slightly from our data, if they occured in-between our weather recording intervals... More about our weather records

Advertising

Kota Kinabalu weather history for previous 24 hours

 ConditionsComfort  
Time TempWeatherWind HumidityBarometerVisibility
11:30 PM
Fri, Sep 4
79 °FPassing clouds.6 mph84%29.89 "HgN/A
11:00 PM79 °FPassing clouds.6 mph89%29.89 "HgN/A
10:30 PM79 °FPassing clouds.6 mph89%29.89 "HgN/A
10:00 PM79 °FPassing clouds.7 mph89%29.89 "HgN/A
9:30 PM79 °FPassing clouds.7 mph89%29.89 "HgN/A
9:00 PM79 °FPassing clouds.8 mph89%29.89 "HgN/A
8:30 PM79 °FPassing clouds.7 mph89%29.89 "HgN/A
8:00 PM79 °FPassing clouds.5 mph94%29.86 "HgN/A
7:30 PM79 °FPartly cloudy.7 mph94%29.86 "HgN/A
7:00 PM79 °FPartly cloudy.8 mph89%29.86 "HgN/A
6:30 PM79 °FPartly cloudy.8 mph89%29.86 "HgN/A
6:00 PM79 °FLight rain. Broken clouds.8 mph89%29.86 "HgN/A
4:30 PM81 °FThunderstorms. Broken clouds.12 mph100%29.86 "Hg4 mi
4:00 PM86 °FThunderstorms. Broken clouds.5 mph79%29.83 "HgN/A
3:30 PM88 °FThunderstorms. Broken clouds.8 mph75%29.83 "HgN/A
3:00 PM88 °FPartly sunny.9 mph75%29.83 "HgN/A
2:30 PM88 °FPartly sunny.8 mph75%29.83 "HgN/A
2:00 PM90 °FBroken clouds.6 mph71%29.83 "HgN/A
1:30 PM88 °FBroken clouds.8 mph75%29.86 "HgN/A
1:00 PM90 °FBroken clouds.7 mph75%29.86 "HgN/A
12:30 PM88 °FBroken clouds.8 mph79%29.89 "HgN/A
12:00 PM88 °FBroken clouds.10 mph79%29.89 "HgN/A
11:30 AM88 °FBroken clouds.8 mph79%29.89 "HgN/A
11:00 AM91 °FBroken clouds.5 mph75%29.89 "HgN/A
10:30 AM90 °FBroken clouds.3 mph79%29.92 "HgN/A
10:00 AM88 °FBroken clouds.2 mph79%29.92 "HgN/A
9:30 AM88 °FPartly sunny.3 mph79%29.92 "HgN/A
9:00 AM86 °FPartly sunny.5 mph84%29.92 "HgN/A
8:30 AM86 °FPartly sunny.5 mph79%29.92 "HgN/A
8:00 AM84 °FBroken clouds.3 mph79%29.92 "HgN/A
7:30 AM82 °FBroken clouds.2 mph84%29.89 "HgN/A
7:00 AM81 °FBroken clouds.3 mph89%29.89 "HgN/A
6:30 AM79 °FBroken clouds.3 mph94%29.86 "HgN/A
5:30 AM81 °FPartly cloudy.3 mph89%29.86 "HgN/A
5:00 AM81 °FPartly cloudy.2 mph89%29.86 "HgN/A
4:30 AM81 °FPartly cloudy.3 mph89%29.86 "HgN/A
4:00 AM81 °FPartly cloudy.5 mph89%29.86 "HgN/A
3:30 AM81 °FPartly cloudy.5 mph84%29.86 "HgN/A
3:00 AM81 °FPartly cloudy.3 mph89%29.86 "HgN/A
2:30 AM81 °FPartly cloudy.1 mph89%29.86 "HgN/A
2:00 AM81 °FPartly cloudy.2 mph84%29.86 "HgN/A
1:30 AM81 °FPartly cloudy.5 mph84%29.86 "HgN/A
1:00 AM81 °FPartly cloudy.7 mph84%29.86 "HgN/A
Weather by CustomWeather, © 2015

See weather overviewHow to use our weather pages